EW6940 Weather Reports


time (UTC)temp
C
wind
direction
speed
KPH
gust
KPH
rain 1hr
cm
rain 24hr
cm
rain mn
cm
humidity
%
barometer
mb
20260507001406 14 325 0.0 0.0 0.00 0.38 0.38 36 1006.6
20260507000905 14 270 0.0 1.6 0.00 0.38 0.38 36 1006.6
20260507000900 14 276 0.0 0.0 0.00 0.38 0.38 36 1006.7
20260507000127 14 258 0.0 1.6 0.00 0.38 0.38 36 1006.6
20260506235354 14 34 0.0 0.0 0.00 0.38 0.38 36 1006.5
20260506234855 14 262 0.0 0.0 0.00 0.38 0.38 36 1006.5
20260506234349 14 239 0.0 0.0 0.00 0.38 0.38 36 1006.5
20260506234116 14 233 0.0 0.0 0.00 0.38 0.38 37 1006.5
20260506233345 14 229 0.0 0.0 0.00 0.38 0.38 37 1006.5
20260506232842 14 276 0.0 0.0 0.00 0.38 0.38 37 1006.4
20260506232342 14 288 0.0 0.0 0.00 0.38 0.38 37 1006.4
20260506231842 14 292 0.0 0.0 0.00 0.38 0.38 37 1006.3
20260506231609 14 317 0.0 0.0 0.00 0.38 0.38 37 1006.3
20260506230838 14 51 0.0 0.0 0.00 0.38 0.38 37 1006.2
20260506230339 14 231 0.0 0.0 0.00 0.38 0.38 38 1006.1
20260506225836 14 218 0.0 0.0 0.00 0.38 0.38 38 1006.2
20260506225336 14 287 0.0 0.0 0.00 0.38 0.38 38 1006.1
20260506224830 14 280 0.0 0.0 0.00 0.38 0.38 38 1006.1
20260506224328 14 266 0.0 0.0 0.00 0.38 0.38 38 1006.1
20260506223826 14 266 0.0 0.0 0.00 0.38 0.38 38 1006.0
20260506223324 14 257 0.0 0.0 0.00 0.38 0.38 38 1006.0
20260506222823 14 257 0.0 3.2 0.00 0.38 0.38 39 1005.9
20260506222322 14 193 0.0 3.2 0.00 0.38 0.38 38 1005.9
20260506221819 14 239 0.0 0.0 0.00 0.38 0.38 39 1006.0
20260506221321 14 243 0.0 0.0 0.00 0.38 0.38 39 1006.0
20260506220821 14 235 0.0 0.0 0.00 0.38 0.38 40 1006.0
20260506220550 14 233 0.0 0.0 0.00 0.38 0.38 40 1006.1
20260506215819 15 56 0.0 0.0 0.00 0.38 0.38 40 1006.0
20260506215316 15 56 0.0 0.0 0.00 0.38 0.38 39 1005.9
20260506215047 15 215 0.0 1.6 0.00 0.38 0.38 39 1005.7
20260506214316 15 248 0.0 1.6 0.03 0.38 0.38 39 1005.9
20260506214045 15 214 0.0 0.0 0.03 0.38 0.38 38 1005.9
20260506213316 15 239 0.0 3.2 0.08 0.38 0.38 39 1005.9
20260506213312 15 217 0.0 3.2 0.05 0.38 0.38 39 1005.9
20260506212310 15 94 0.0 3.2 0.13 0.38 0.38 40 1006.0
20260506211808 15 242 0.0 3.2 0.13 0.38 0.38 40 1006.0
20260506211308 15 243 0.0 0.0 0.13 0.38 0.38 40 1006.1
20260506210808 15 214 0.0 0.0 0.13 0.38 0.38 41 1006.2
20260506210307 15 205 0.0 0.0 0.13 0.38 0.38 41 1006.2
20260506205807 15 271 0.0 3.2 0.13 0.38 0.38 42 1006.3
20260506205306 15 253 0.0 3.2 0.13 0.38 0.38 43 1006.4
20260506204804 15 231 0.0 0.0 0.13 0.38 0.38 43 1006.4
20260506204305 15 224 0.0 1.6 0.10 0.36 0.36 43 1006.4
20260506203803 15 252 0.0 1.6 0.10 0.36 0.36 42 1006.4
20260506203300 15 227 0.0 0.0 0.08 0.33 0.33 42 1006.4
20260506202800 15 203 0.0 3.2 0.05 0.30 0.30 43 1006.5
20260506202258 15 221 0.0 3.2 0.00 0.25 0.25 44 1006.6
20260506201755 15 278 0.0 3.2 0.00 0.25 0.25 45 1006.7
20260506201529 15 235 0.0 0.0 0.00 0.25 0.25 44 1006.4
20260506200756 15 215 0.0 0.0 0.03 0.25 0.25 43 1006.4
20260506200254 15 240 0.0 0.0 0.03 0.25 0.25 44 1006.5
20260506195754 15 175 0.0 0.0 0.03 0.25 0.25 45 1006.6
20260506195524 15 210 0.0 0.0 0.03 0.25 0.25 46 1006.6
20260506194751 15 198 0.0 4.8 0.03 0.25 0.25 47 1006.7
20260506194251 15 210 0.0 4.8 0.03 0.25 0.25 47 1006.8
20260506193749 15 160 0.0 3.2 0.05 0.25 0.25 49 1006.9
20260506193520 15 252 0.0 3.2 0.05 0.25 0.25 49 1006.9
20260506192747 15 229 0.0 3.2 0.08 0.25 0.25 49 1006.9
20260506192246 15 133 0.0 1.6 0.08 0.25 0.25 50 1007.0
20260506192014 15 242 0.0 12.9 0.08 0.25 0.25 49 1007.1
20260506191242 15 245 0.0 12.9 0.08 0.25 0.25 53 1007.0
20260506190742 15 217 0.0 1.6 0.08 0.23 0.23 51 1007.1
20260506190511 15 213 0.0 1.6 0.08 0.23 0.23 51 1007.2
20260506185737 15 221 0.0 0.0 0.10 0.23 0.23 50 1007.2
20260506185239 15 224 0.0 0.0 0.10 0.23 0.23 52 1007.3
20260506184737 15 228 0.0 0.0 0.13 0.23 0.23 54 1007.3
20260506184238 15 236 0.0 0.0 0.13 0.23 0.23 57 1007.5
20260506183733 15 224 0.0 0.0 0.13 0.20 0.20 58 1007.6
20260506183232 15 229 0.0 0.0 0.15 0.20 0.20 60 1007.5
20260506182734 15 295 0.0 0.0 0.15 0.18 0.18 62 1007.4
20260506182232 15 163 0.0 0.0 0.18 0.18 0.18 64 1007.5
20260506181731 15 205 0.0 0.0 0.18 0.18 0.18 65 1007.3
20260506181232 15 55 0.0 0.0 0.18 0.18 0.18 68 1007.3
20260506180732 15 157 0.0 0.0 0.15 0.15 0.15 71 1007.3
20260506180228 15 130 0.0 0.0 0.15 0.15 0.15 74 1007.4
20260506180000 15 138 0.0 0.0 0.13 0.13 0.15 78 1007.5
20260506175229 15 140 0.0 0.0 0.13 0.13 0.13 80 1007.7
20260506175000 15 207 0.0 0.0 0.10 0.10 0.10 81 1007.8
20260506174229 16 236 0.0 0.0 0.10 0.10 0.10 83 1008.0
20260506174000 16 93 0.0 0.0 0.08 0.08 0.08 85 1008.1
20260506173224 16 213 0.0 0.0 0.05 0.05 0.05 85 1008.1
20260506172725 16 141 0.0 3.2 0.03 0.03 0.03 84 1008.3
20260506172225 17 217 0.0 3.2 0.00 0.00 0.00 83 1008.4
20260506171726 17 277 0.0 0.0 0.00 0.00 0.00 81 1008.5
20260506171225 17 278 0.0 0.0 0.00 0.00 0.00 79 1008.5
20260506170727 18 212 0.0 0.0 0.00 0.00 0.00 77 1008.6
20260506170220 18 232 0.0 0.0 0.00 0.00 0.00 76 1008.6
20260506165721 18 296 0.0 0.0 0.00 0.00 0.00 75 1008.7
20260506165220 18 353 0.0 0.0 0.00 0.00 0.00 73 1008.6
20260506164722 19 178 0.0 0.0 0.00 0.00 0.00 72 1008.6
20260506164222 19 198 0.0 0.0 0.00 0.00 0.00 71 1008.6
20260506163723 19 238 0.0 0.0 0.00 0.00 0.00 71 1008.5
20260506163216 20 107 0.0 0.0 0.00 0.00 0.00 71 1008.4
20260506162716 19 162 0.0 0.0 0.00 0.00 0.00 72 1008.5
20260506162218 19 297 0.0 1.6 0.00 0.00 0.00 72 1008.3
20260506161948 19 127 0.0 1.6 0.00 0.00 0.00 72 1008.4
20260506161449 19 261 0.0 0.0 0.00 0.00 0.00 72 1008.6
20260506160718 19 267 0.0 1.6 0.00 0.00 0.00 72 1008.7
20260506160218 19 160 0.0 1.6 0.00 0.00 0.00 72 1008.7
20260506155716 19 131 0.0 0.0 0.00 0.00 0.00 72 1008.9
20260506155215 19 267 0.0 0.0 0.00 0.00 0.00 72 1008.9
20260506154714 19 181 0.0 0.0 0.00 0.00 0.00 71 1009.0
20260506154214 19 205 0.0 0.0 0.00 0.00 0.00 70 1009.0
20260506153706 20 274 0.0 0.0 0.00 0.00 0.00 70 1008.8
20260506153205 20 279 0.0 0.0 0.00 0.00 0.00 70 1008.8
20260506152705 20 13 0.0 0.0 0.00 0.00 0.00 69 1008.7
20260506152203 20 144 0.0 0.0 0.00 0.00 0.00 68 1008.7
20260506151703 20 271 0.0 0.0 0.00 0.00 0.00 67 1008.5
20260506151204 20 249 0.0 1.6 0.00 0.00 0.00 68 1008.6
20260506150934 20 166 0.0 1.6 0.00 0.00 0.00 68 1008.7
20260506150204 20 264 0.0 0.0 0.00 0.00 0.00 68 1008.7
20260506145701 20 228 0.0 0.0 0.00 0.00 0.00 69 1008.9
20260506145201 20 238 0.0 0.0 0.00 0.00 0.00 70 1008.9
20260506144701 20 266 0.0 0.0 0.00 0.00 0.00 69 1009.0
20260506144432 20 150 0.0 0.0 0.00 0.00 0.00 68 1009.0
20260506143659 20 278 0.0 0.0 0.00 0.00 0.00 68 1008.9
20260506143429 20 283 0.0 0.0 0.00 0.00 0.00 68 1009.1
20260506142930 20 298 0.0 0.0 0.00 0.00 0.00 69 1009.1
20260506142815 20 274 0.0 6.4 0.00 0.00 0.00 71 1008.9
20260506141657 20 297 0.0 6.4 0.00 0.00 0.00 71 1009.0
20260506141157 19 192 0.0 0.0 0.00 0.00 0.00 72 1009.1
20260506140654 19 240 0.0 1.6 0.00 0.00 0.00 72 1009.2
20260506140157 19 271 0.0 1.6 0.00 0.00 0.00 72 1009.3
20260506135655 19 131 0.0 1.6 0.00 0.00 0.00 73 1008.9
20260506135154 19 214 0.0 1.6 0.00 0.00 0.00 73 1009.0
20260506134654 18 70 0.0 1.6 0.00 0.00 0.00 74 1008.8
20260506134155 18 281 0.0 1.6 0.00 0.00 0.00 75 1008.9
20260506133926 18 259 0.0 3.2 0.00 0.00 0.00 75 1008.8
20260506133153 18 229 0.0 3.2 0.00 0.00 0.00 76 1008.9
20260506132653 18 281 0.0 1.6 0.00 0.00 0.00 77 1008.9
20260506132152 18 279 0.0 0.0 0.00 0.00 0.00 77 1009.0
20260506131652 18 194 0.0 8.0 0.00 0.00 0.00 77 1009.0
20260506131152 18 72 0.0 8.0 0.00 0.00 0.00 78 1008.9
20260506130654 17 275 0.0 3.2 0.00 0.00 0.00 79 1009.1
20260506130154 17 166 0.0 4.8 0.00 0.00 0.00 79 1009.3
20260506125646 17 55 0.0 6.4 0.00 0.00 0.00 79 1009.3
20260506125146 17 274 0.0 6.4 0.00 0.00 0.00 80 1009.4
20260506124646 17 288 0.0 3.2 0.00 0.00 0.00 80 1009.7
20260506124147 17 30 0.0 4.8 0.00 0.00 0.00 80 1009.7
20260506123919 17 256 0.0 4.8 0.00 0.00 0.00 81 1009.7
20260506123147 17 181 0.0 0.0 0.00 0.00 0.00 82 1009.7
20260506122642 16 258 0.0 6.4 0.00 0.00 0.00 83 1009.6
20260506122142 16 248 0.0 6.4 0.00 0.00 0.00 83 1009.6
20260506121640 16 192 0.0 3.2 0.00 0.00 0.00 83 1009.7
20260506121142 16 271 0.0 3.2 0.00 0.00 0.00 84 1009.6
20260506120910 16 290 0.0 0.0 0.00 0.00 0.00 84 1009.6
20260506120138 16 262 0.0 0.0 0.00 0.00 0.00 84 1009.8
20260506115633 16 93 0.0 0.0 0.00 0.00 0.00 84 1009.6
20260506115133 16 219 0.0 0.0 0.00 0.00 0.00 84 1009.6
20260506114630 16 276 0.0 1.6 0.00 0.00 0.00 85 1009.6
20260506114358 15 304 0.0 1.6 0.00 0.00 0.00 85 1009.6
20260506113627 15 262 0.0 1.6 0.00 0.00 0.00 85 1009.5
20260506113122 15 305 0.0 4.8 0.00 0.00 0.00 85 1009.3
20260506112623 15 215 0.0 4.8 0.00 0.00 0.00 85 1009.5
20260506112122 15 206 0.0 0.0 0.00 0.00 0.00 85 1009.8
20260506111854 15 300 0.0 0.0 0.00 0.00 0.00 85 1009.9
20260506111121 15 153 0.0 0.0 0.00 0.00 0.00 85 1009.9
20260506110621 15 258 0.0 0.0 0.00 0.00 0.00 84 1009.8
20260506110119 14 283 0.0 0.0 0.00 0.00 0.00 84 1009.9
20260506105619 14 314 0.0 1.6 0.00 0.00 0.00 84 1009.8
20260506105120 14 210 0.0 1.6 0.00 0.00 0.00 84 1009.7
20260506104616 14 248 0.0 1.6 0.00 0.00 0.00 84 1009.8
20260506104116 14 25 0.0 1.6 0.00 0.00 0.00 84 1009.7
20260506103614 14 219 0.0 1.6 0.00 0.00 0.00 83 1009.7
20260506103113 14 216 0.0 1.6 0.00 0.00 0.00 84 1009.6
20260506102611 13 68 0.0 6.4 0.00 0.00 0.00 84 1009.5
20260506102109 13 198 0.0 6.4 0.00 0.00 0.00 84 1009.6
20260506101609 13 281 0.0 0.0 0.00 0.00 0.00 84 1009.7
20260506101109 13 264 0.0 0.0 0.00 0.00 0.00 85 1009.6
20260506100840 13 264 0.0 0.0 0.00 0.00 0.00 85 1009.6
20260506100105 13 254 0.0 0.0 0.00 0.00 0.00 85 1009.5
20260506095836 14 155 0.0 0.0 0.00 0.00 0.00 85 1009.6
20260506095102 14 283 0.0 0.0 0.00 0.00 0.00 85 1009.5
20260506094608 14 163 0.0 3.2 0.00 0.00 0.00 85 1009.4
20260506094603 14 107 0.0 3.2 0.00 0.00 0.00 85 1009.5
20260506093603 14 208 0.0 0.0 0.00 0.00 0.00 85 1009.5
20260506093101 14 200 0.0 0.0 0.00 0.00 0.00 85 1009.7
20260506092601 14 148 0.0 0.0 0.00 0.00 0.00 85 1009.6
20260506092332 14 178 0.0 0.0 0.00 0.00 0.00 85 1009.6
20260506091830 14 201 0.0 0.0 0.00 0.00 0.00 85 1009.6
20260506091331 14 260 0.0 0.0 0.00 0.00 0.00 85 1009.6
20260506090600 14 213 0.0 0.0 0.00 0.00 0.00 85 1009.6
20260506090056 14 244 0.0 0.0 0.00 0.00 0.00 85 1009.7
20260506085557 14 233 0.0 0.0 0.00 0.00 0.00 85 1009.6
20260506085055 14 347 0.0 0.0 0.00 0.00 0.00 85 1009.6
20260506084552 14 216 0.0 0.0 0.00 0.00 0.00 85 1009.7
20260506084325 14 216 0.0 0.0 0.00 0.00 0.00 85 1009.8
20260506083551 14 158 0.0 0.0 0.00 0.00 0.00 85 1009.7
20260506083049 14 232 0.0 0.0 0.00 0.00 0.00 85 1009.7
20260506082549 14 203 0.0 0.0 0.00 0.00 0.00 85 1009.7
20260506082047 14 176 0.0 0.0 0.00 0.00 0.00 85 1009.6
20260506081543 14 207 0.0 0.0 0.00 0.00 0.00 85 1009.6
20260506081042 14 222 0.0 0.0 0.00 0.00 0.00 85 1009.7
20260506080542 15 210 0.0 0.0 0.00 0.00 0.00 85 1009.7
20260506080314 15 169 0.0 0.0 0.00 0.00 0.00 85 1009.7
20260506073028 15 229 0.0 0.0 0.00 0.00 0.00 84 1009.7
20260506072529 15 70 0.0 0.0 0.00 0.00 0.00 84 1009.7
20260506072027 15 243 0.0 0.0 0.00 0.00 0.00 84 1009.8
20260506071525 15 240 0.0 0.0 0.00 0.00 0.00 84 1009.8
20260506071259 15 231 0.0 0.0 0.00 0.00 0.00 84 1009.8
20260506070758 15 177 0.0 0.0 0.00 0.00 0.00 83 1009.8
20260506062023 15 79 0.0 1.6 0.00 0.00 0.00 82 1009.7
20260506061522 15 237 0.0 1.6 0.00 0.00 0.00 82 1009.7
20260506061022 15 172 0.0 0.0 0.00 0.00 0.00 82 1009.6
20260506060524 15 236 0.0 0.0 0.00 0.00 0.00 82 1009.6
20260506051243 16 110 0.0 0.0 0.00 0.00 0.00 79 1010.1
20260506050504 16 243 0.0 0.0 0.00 0.00 0.00 79 1010.3
20260506045001 16 244 0.0 1.6 0.00 0.00 0.00 78 1010.2
20260506044726 16 170 0.0 4.8 0.00 0.00 0.00 78 1010.3
20260506044220 16 188 0.0 4.8 0.00 0.00 0.00 78 1010.1
20260506043450 16 180 0.0 1.6 0.00 0.00 0.00 78 1010.1
20260506042951 16 150 0.0 0.0 0.00 0.00 0.00 77 1010.1
20260506042450 16 269 0.0 0.0 0.00 0.00 0.00 77 1010.1
20260506042221 16 307 0.0 0.0 0.00 0.00 0.00 77 1010.0
20260506041451 16 153 0.0 4.8 0.00 0.00 0.00 77 1010.1
20260506040946 16 260 0.0 4.8 0.00 0.00 0.00 77 1010.0
20260506040716 16 286 0.0 0.0 0.00 0.00 0.00 76 1010.2
20260506035948 16 234 0.0 0.0 0.00 0.00 0.00 76 1010.1
20260506035445 16 266 0.0 0.0 0.00 0.00 0.00 75 1010.2
20260506034945 16 295 0.0 0.0 0.00 0.00 0.00 75 1010.1
20260506034446 16 217 0.0 0.0 0.00 0.00 0.00 74 1010.2
20260506033943 16 269 0.0 0.0 0.00 0.00 0.00 74 1010.2
20260506033713 16 295 0.0 0.0 0.00 0.00 0.00 73 1010.2
20260506032943 17 205 0.0 0.0 0.00 0.00 0.00 73 1010.2
20260506032442 17 300 0.0 0.0 0.00 0.00 0.00 72 1010.2
20260506031942 17 169 0.0 0.0 0.00 0.00 0.00 72 1010.3
20260506031441 17 245 0.0 0.0 0.00 0.00 0.00 71 1010.2
20260506030938 17 307 0.0 1.6 0.00 0.00 0.00 71 1010.2
20260506030439 17 217 0.0 1.6 0.00 0.00 0.00 71 1010.1
20260506030210 17 219 0.0 1.6 0.00 0.00 0.00 71 1010.1
20260506025437 17 287 0.0 1.6 0.00 0.00 0.00 71 1010.0
20260506024935 17 240 0.0 0.0 0.00 0.00 0.00 71 1009.9
20260506024708 17 245 0.0 0.0 0.00 0.00 0.00 71 1010.0
20260506023934 17 174 0.0 4.8 0.00 0.00 0.00 71 1010.0
20260506023435 17 279 0.0 4.8 0.00 0.00 0.00 71 1010.0
20260506022932 17 252 0.0 0.0 0.00 0.00 0.00 71 1010.0
20260506022430 17 224 0.0 0.0 0.00 0.00 0.00 71 1009.9
20260506021930 17 234 0.0 0.0 0.00 0.00 0.00 70 1009.9
20260506021425 17 211 0.0 0.0 0.00 0.00 0.00 70 1010.0
20260506021153 17 275 0.0 0.0 0.00 0.00 0.00 70 1009.9
20260506020422 17 236 0.0 0.0 0.00 0.00 0.00 70 1010.0
20260506015920 17 266 0.0 0.0 0.00 0.00 0.00 70 1010.0
20260506015421 17 230 0.0 0.0 0.00 0.00 0.00 70 1009.9
20260506014921 17 290 0.0 0.0 0.00 0.00 0.00 70 1010.0
20260506014420 17 194 0.0 0.0 0.00 0.00 0.00 70 1009.8
20260506013920 17 235 0.0 0.0 0.00 0.00 0.00 69 1009.8
20260506013416 17 223 0.0 0.0 0.00 0.00 0.00 69 1009.7
20260506012914 17 104 0.0 0.0 0.00 0.00 0.00 69 1009.8
20260506012414 17 167 0.0 3.2 0.00 0.00 0.00 69 1009.6
20260506011914 17 212 0.0 3.2 0.00 0.00 0.00 68 1009.6
20260506011646 17 8 0.0 3.2 0.00 0.00 0.00 68 1009.4
20260506010912 17 257 0.0 3.2 0.00 0.00 0.00 68 1009.5
20260506010410 17 281 0.0 0.0 0.00 0.00 0.00 68 1009.5
20260506005909 17 298 0.0 3.2 0.00 0.00 0.00 67 1009.4
20260506005639 17 288 0.0 3.2 0.00 0.00 0.00 67 1009.3
20260506004908 17 287 0.0 1.6 0.00 0.00 0.00 67 1009.4
20260506004407 17 325 0.0 1.6 0.00 0.00 0.00 66 1009.3
20260506003904 17 260 0.0 0.0 0.00 0.00 0.00 66 1009.0
20260506003410 17 50 0.0 6.4 0.00 0.00 0.00 65 1008.9
20260506003403 17 230 0.0 6.4 0.00 0.00 0.00 65 1008.7
20260506002400 17 302 0.0 0.0 0.00 0.00 0.00 65 1008.7
20260506001901 18 294 0.0 0.0 0.00 0.00 0.00 64 1008.6